Location: Grandview
(34.8900°N, 117.1058°W)
Time: 14:39:21
(UTC-07:00)

Vanguard 2 Rocket - All Passes

Search period start: 14 August 2018 00:00
Search period end: 24 August 2018 00:00
Orbit: 554 x 3327 km, 32.9° (Epoch: 13 August)

Date Brightness Start Highest point End Pass type
(mag) Time Alt. Az. Time Alt. Az. Time Alt. Az.
14 Aug - 00:38:43 10° W 00:42:14 23° SSW 00:45:21 10° SSE night (unlit)
14 Aug - 14:40:20 10° SSE 14:45:35 12° SE 14:50:17 10° SE daylight
14 Aug - 16:48:34 10° SSW 17:01:46 33° SSE 17:10:16 10° E daylight
14 Aug - 19:04:42 10° WSW 19:16:46 60° SSE 19:23:29 10° E daylight
14 Aug - 21:22:16 10° W 21:30:34 76° S 21:35:30 10° E visible
14 Aug - 23:38:22 10° W 23:43:16 37° SSW 23:47:01 10° SE visible
15 Aug - 15:47:54 10° SSW 16:01:00 27° SSE 16:10:12 10° E daylight
15 Aug - 18:02:49 10° SW 18:16:38 53° SSE 18:24:29 10° E daylight
15 Aug - 20:20:41 10° W 20:31:00 76° S 20:36:45 10° E visible
15 Aug - 22:37:45 10° W 22:44:14 55° SSW 22:48:30 10° ESE visible
16 Aug - 00:54:21 10° WSW 00:56:14 13° SW 00:58:00 10° S night (unlit)
16 Aug - 14:48:05 10° S 15:00:00 21° SSE 15:09:14 10° ESE daylight
16 Aug - 17:01:04 10° SW 17:16:09 45° SSE 17:25:13 10° E daylight
16 Aug - 19:18:41 10° WSW 19:31:09 72° S 19:37:57 10° E daylight
16 Aug - 21:36:39 10° W 21:44:58 71° S 21:49:53 10° ESE visible
16 Aug - 23:53:08 10° W 23:57:20 24° SSW 00:00:41 10° SSE visible
17 Aug - 13:49:53 10° S 13:58:49 15° SE 14:06:33 10° ESE daylight
17 Aug - 15:59:41 10° SSW 16:15:19 38° SSE 16:25:34 10° E daylight
17 Aug - 18:16:28 10° WSW 18:30:58 66° SSE 18:39:00 10° E daylight
17 Aug - 20:35:02 10° W 20:45:25 78° S 20:51:11 10° E visible
17 Aug - 22:52:14 10° W 22:58:24 40° SSW 23:02:34 10° SE visible
18 Aug - 14:58:53 10° SSW 15:14:15 31° SSE 15:25:19 10° E daylight
18 Aug - 17:14:15 10° SW 17:30:27 58° SSE 17:39:51 10° E daylight
18 Aug - 19:32:55 10° W 19:45:32 79° S 19:52:23 10° E daylight
18 Aug - 21:51:03 10° W 21:59:15 58° SSW 22:04:09 10° ESE visible
19 Aug - 00:08:40 10° WSW 00:11:12 14° SW 00:13:24 10° S visible
19 Aug - 13:59:01 10° S 14:13:00 24° SE 14:24:12 10° E daylight
19 Aug - 16:12:19 10° SW 16:29:34 51° SSE 16:40:23 10° E daylight
19 Aug - 18:30:28 10° WSW 18:45:20 76° S 18:53:27 10° E daylight
19 Aug - 20:49:24 10° W 20:59:46 72° SSW 21:05:33 10° ESE visible
19 Aug - 23:06:57 10° W 23:12:22 26° SW 23:16:14 10° SSE visible
20 Aug - 13:00:37 10° S 13:11:42 18° SE 13:21:31 10° ESE daylight
20 Aug - 15:10:54 10° SW 15:28:24 43° SSE 15:40:30 10° E daylight
20 Aug - 17:27:56 10° WSW 17:44:45 70° SSE 17:54:20 10° E daylight
20 Aug - 19:47:15 10° W 19:59:56 80° S 20:06:47 10° E visible
20 Aug - 22:05:31 10° W 22:13:22 43° SSW 22:18:12 10° SE visible
21 Aug - 12:06:26 10° SSE 12:10:24 11° SE 12:14:16 10° SE daylight
21 Aug - 14:10:12 10° SSW 14:27:02 35° SSE 14:40:00 10° E daylight
21 Aug - 16:25:35 10° SW 16:43:49 63° SSE 16:54:57 10° E daylight
21 Aug - 18:44:42 10° W 18:59:43 81° S 19:07:53 10° E daylight
21 Aug - 21:03:48 10° W 21:14:01 61° SSW 21:19:48 10° ESE visible
21 Aug - 23:22:19 10° WSW 23:26:05 16° SW 23:29:06 10° S visible
22 Aug - 13:10:28 10° S 13:25:37 27° SE 13:38:35 10° E daylight
22 Aug - 15:23:41 10° SW 15:42:31 55° SSE 15:55:13 10° E daylight
22 Aug - 17:41:58 10° WSW 17:59:06 78° S 18:08:46 10° E daylight
22 Aug - 20:01:37 10° W 20:14:17 74° SSW 20:21:09 10° ESE visible
22 Aug - 22:20:12 10° W 22:27:14 30° SW 22:31:52 10° SSE visible
23 Aug - 12:12:09 10° S 12:24:17 19° SE 12:35:39 10° E daylight
23 Aug - 14:22:25 10° SW 14:41:01 46° SSE 14:55:01 10° E daylight
23 Aug - 16:39:19 10° WSW 16:58:04 73° SSE 17:09:25 10° E daylight
23 Aug - 18:59:03 10° W 19:14:07 81° S 19:22:17 10° E daylight
23 Aug - 21:18:14 10° W 21:28:05 47° SSW 21:33:49 10° SE visible
